SCP
0 0 0 0 0 0 0 0 0 0 1 0 0 0 0 0 0 0 0 0 0 0 0 0 0 0 0 0 0 0 0 0
0 0 0 0 0 0 0 0 0 0 0 0 0 0 0 0 0 0 0 0 0 0 0 0 0 0 0 0 0 0 0 0
0 0 0 1 0 0 0 0 0 0 0 0 0 0 0 0 0 0 0 0 0 0 0 0 0 0 0 0 0 0 0 0
0 0 0 0 1 1 1 1 1 0 0 0 0 0 0 0 0 0 0 0 0 0 0 0 0 0 0 0 0 0 0 0
1 1 1 1 2 2 2 2 2 1 0 0 0 0 0 0 0 0 0 0 0 0 0 0 0 0 0 0 0 0 0 0
1 1 1 2 2 1 1 0 0 0 0 0 0 0 0 0 0 0 0 0 0 0 0 0 0 0 0 0 0 0 0 0
0 1 1 1 1 1 1 0 0 0 0 0 0 0 0 0 0 0 0 0 0 0 0 0 0 0 0 0 0 0 0 0
1 0 1 1 1 1 1 1 0 0 0 0 0 0 0 0 0 0 0 0 0 0 0 0 0 0 0 0 0 0 0 0
1 1 1 1 1 1 1 0 0 0 0 0 0 0 0 0 0 0 0 0 0 0 0 0 0 0 0 0 0 0 0 0
1 1 1 1 1 1 1 0 0 0 0 0 0 0 0 0 0 0 0 0 0 0 0 0 0 0 0 0 0 0 0 0
2 1 1 1 1 1 1 0 0 0 0 0 0 0 0 0 0 0 0 0 0 0 0 0 0 0 0 0 0 0 0 0
2 2 2 1 1 1 1 1 0 0 0 0 0 0 0 0 0 0 0 0 0 0 0 0 0 0 0 0 0 0 0 0
2 1 1 1 0 0 0 0 0 0 0 0 0 0 0 0 0 0 0 0 0 0 0 0 0 0 0 0 0 0 0 0
1 1 1 0 0 0 0 0 0 0 0 0 0 0 0 0 0 0 0 0 0 0 0 0 0 0 0 0 0 0 0 0
0 0 1 0 0 0 0 0 0 0 0 0 0 0 0 0 0 0 0 0 0 0 0 0 0 0 0 0 0 0 0 0
0 0 0 0 0 0 0 0 0 0 0 0 0 0 0 0 0 0 0 0 0 0 0 0 0 0 0 0 0 0 0 0
0 0 0 0 0 0 0 0 0 0 0 0 0 0 0 0 0 0 0 0 0 0 0 0 0 0 0 0 0 0 0 0
0 0 0 0 0 0 0 0 0 0 0 0 0 0 0 0 0 0 0 0 0 0 0 0 0 0 0 0 0 0 0 0
0 0 0 0 0 0 0 0 0 0 0 0 0 0 0 0 0 0 0 0 0 0 0 0 0 0 0 0 0 0 0 0
0 0 0 0 0 0 0 0 0 0 0 0 0 0 0 0 0 0 0 0 0 0 0 0 0 0 0 0 0 0 0 0
Wind_Speed_500mb
38 39 38 37 36 36 36 36 33 31 33 30 29 26 22 20 19 19 19 18 16 15 13 11 10 11 13 18 27 28 12 14
35 37 38 40 42 40 39 40 37 38 35 34 30 26 26 22 21 23 22 20 18 17 16 15 14 15 17 22 28 27 18 15
35 38 38 39 37 42 41 39 37 37 38 34 30 27 27 26 32 25 25 22 21 20 18 16 14 16 20 29 29 18 17 12
36 38 40 37 39 49 48 50 46 41 41 38 29 24 21 22 31 28 26 25 24 22 20 17 12 19 26 26 19 23 20 16
42 42 41 45 52 52 58 55 52 53 51 40 32 27 31 39 29 31 30 27 27 26 23 16 14 16 13 17 23 24 22 21
42 43 49 48 47 47 48 49 59 60 52 48 42 37 33 27 26 30 33 34 30 31 26 21 27 21 20 22 23 25 24 27
49 48 58 55 60 52 54 61 58 53 56 51 49 44 40 41 37 34 32 31 31 26 25 28 27 26 22 22 24 29 26 23
50 49 52 60 57 56 57 60 62 65 62 56 55 46 39 41 45 40 36 35 31 32 32 29 28 28 29 29 28 28 26 11
43 52 51 46 50 55 56 58 61 63 63 58 57 54 54 48 45 40 32 32 33 30 32 33 33 29 30 33 29 29 27 28
41 46 50 49 49 52 47 51 54 59 61 62 61 60 59 49 45 42 37 36 37 36 36 34 33 34 33 30 31 31 30 27
37 42 41 49 46 47 44 41 42 52 53 53 54 56 55 52 43 36 38 35 35 38 38 39 37 35 33 32 29 30 28 25
34 38 47 50 49 53 48 44 41 39 43 42 41 49 53 52 42 39 45 37 38 38 42 41 41 41 37 32 29 26 26 22
23 29 39 47 53 57 61 61 50 47 45 40 39 38 45 54 48 44 51 44 45 51 50 50 48 47 43 35 29 27 25 22
17 32 34 43 55 49 48 52 53 52 57 48 44 44 45 45 50 45 46 41 46 51 56 53 51 56 51 39 31 26 24 23
12 17 27 39 53 56 53 62 57 51 52 51 46 48 50 50 55 44 40 45 49 54 61 59 58 61 57 34 27 21 35 24
4 11 20 33 48 58 57 62 67 70 64 64 59 61 64 71 69 67 45 43 48 55 58 60 58 67 59 37 29 23 29 28
13 16 20 28 35 40 48 58 67 77 75 72 68 62 59 58 64 60 54 49 39 52 49 61 54 61 57 56 29 31 27 24
23 29 34 33 33 32 36 45 54 66 76 71 67 64 58 58 56 57 54 54 46 46 56 59 54 54 53 55 44 39 35 29
34 35 34 28 18 21 29 34 41 51 58 64 64 63 65 67 70 67 68 66 55 50 49 60 62 54 46 50 43 35 26 32
33 34 33 34 27 25 29 33 35 43 51 55 53 56 61 59 59 58 57 55 54 44 45 48 55 58 50 47 47 39 36 32
Wind_Direction_500mb
192 180 182 185 191 196 201 202 203 203 207 212 214 219 219 222 230 229 227 227 224 215 206 194 178 165 155 151 141 123 125 101
191 181 187 190 194 200 207 208 212 215 217 221 220 221 222 229 233 231 228 225 217 209 202 192 182 169 157 146 142 125 129 126
193 191 193 196 200 206 208 216 220 221 216 224 225 226 222 220 222 222 223 219 213 207 203 197 188 171 154 135 118 138 124 126
195 197 193 202 199 213 205 213 216 226 228 228 236 204 200 197 223 215 219 218 214 202 198 194 184 165 148 127 135 139 137 124
194 199 201 200 207 208 206 207 215 224 227 227 226 212 213 211 219 212 217 215 213 208 197 167 165 176 168 169 151 135 131 138
195 205 206 205 214 214 222 232 222 227 226 230 234 234 231 204 212 216 220 216 212 202 183 187 186 184 177 166 152 156 153 174
209 207 212 210 219 220 228 224 224 234 237 239 240 235 227 222 217 220 214 206 203 198 193 189 180 174 167 163 152 161 155 188
221 222 225 224 229 231 233 235 239 240 239 239 241 232 220 224 225 220 211 204 202 195 194 184 179 173 165 164 159 155 159 196
221 224 227 231 230 234 234 238 242 242 240 241 241 242 234 229 229 222 208 205 198 198 193 185 180 175 168 162 159 158 155 153
223 230 227 228 221 235 236 239 239 240 244 242 239 236 229 232 231 223 204 203 197 194 191 191 186 178 173 168 159 158 156 149
222 246 241 233 226 232 242 245 236 238 239 242 241 232 230 229 221 213 209 205 198 195 191 191 189 182 176 172 166 160 153 158
226 221 242 235 233 225 227 224 227 224 221 221 224 224 225 222 206 207 210 201 200 197 193 192 191 184 178 175 167 161 162 155
229 226 251 239 232 224 233 231 234 233 221 218 218 218 219 219 200 209 217 200 201 196 192 190 189 185 171 168 165 166 166 160
221 253 248 241 242 245 246 241 238 240 230 216 212 212 213 210 202 210 218 204 202 200 189 191 190 184 178 172 167 173 180 165
219 235 242 244 239 247 254 242 233 222 219 215 210 210 215 209 207 202 213 201 207 202 193 191 189 187 183 170 167 197 173 180
338 292 272 254 251 254 258 250 232 220 209 208 215 215 213 213 207 200 199 202 201 199 195 196 191 188 189 200 212 213 174 168
342 331 304 288 273 263 255 251 246 240 230 226 230 226 224 223 219 217 203 198 202 197 196 199 196 197 194 204 189 175 171 165
335 324 308 296 289 283 274 267 260 250 244 239 240 240 240 234 237 225 213 210 213 204 198 199 200 206 207 206 189 187 187 177
322 313 309 288 255 263 266 262 264 263 255 248 241 236 234 235 226 223 216 210 210 212 214 215 203 205 212 210 188 195 195 190
284 278 268 251 252 261 265 262 255 249 249 243 242 246 246 235 228 217 209 205 205 205 208 220 217 208 211 204 202 195 202 189
Wind_Speed_850mb
38 39 38 37 36 36 36 36 33 31 33 30 29 26 22 20 19 19 19 18 16 15 13 11 10 11 13 18 27 28 12 14
35 37 38 40 42 40 39 40 37 38 35 34 30 26 26 22 21 23 22 20 18 17 16 15 14 15 17 22 28 27 18 15
35 38 38 39 37 42 41 39 37 37 38 34 30 27 27 26 32 25 25 22 21 20 18 16 14 16 20 29 29 18 17 12
36 38 40 37 39 49 48 50 46 41 41 38 29 24 21 22 31 28 26 25 24 22 20 17 12 19 26 26 19 23 20 16
42 42 41 45 52 52 58 55 52 53 51 40 32 27 31 39 29 31 30 27 27 26 23 16 14 16 13 17 23 24 22 21
42 43 49 48 47 47 48 49 59 60 52 48 42 37 33 27 26 30 33 34 30 31 26 21 27 21 20 22 23 25 24 27
49 48 58 55 60 52 54 61 58 53 56 51 49 44 40 41 37 34 32 31 31 26 25 28 27 26 22 22 24 29 26 23
50 49 52 60 57 56 57 60 62 65 62 56 55 46 39 41 45 40 36 35 31 32 32 29 28 28 29 29 28 28 26 11
43 52 51 46 50 55 56 58 61 63 63 58 57 54 54 48 45 40 32 32 33 30 32 33 33 29 30 33 29 29 27 28
41 46 50 49 49 52 47 51 54 59 61 62 61 60 59 49 45 42 37 36 37 36 36 34 33 34 33 30 31 31 30 27
37 42 41 49 46 47 44 41 42 52 53 53 54 56 55 52 43 36 38 35 35 38 38 39 37 35 33 32 29 30 28 25
34 38 47 50 49 53 48 44 41 39 43 42 41 49 53 52 42 39 45 37 38 38 42 41 41 41 37 32 29 26 26 22
23 29 39 47 53 57 61 61 50 47 45 40 39 38 45 54 48 44 51 44 45 51 50 50 48 47 43 35 29 27 25 22
17 32 34 43 55 49 48 52 53 52 57 48 44 44 45 45 50 45 46 41 46 51 56 53 51 56 51 39 31 26 24 23
12 17 27 39 53 56 53 62 57 51 52 51 46 48 50 50 55 44 40 45 49 54 61 59 58 61 57 34 27 21 35 24
4 11 20 33 48 58 57 62 67 70 64 64 59 61 64 71 69 67 45 43 48 55 58 60 58 67 59 37 29 23 29 28
13 16 20 28 35 40 48 58 67 77 75 72 68 62 59 58 64 60 54 49 39 52 49 61 54 61 57 56 29 31 27 24
23 29 34 33 33 32 36 45 54 66 76 71 67 64 58 58 56 57 54 54 46 46 56 59 54 54 53 55 44 39 35 29
34 35 34 28 18 21 29 34 41 51 58 64 64 63 65 67 70 67 68 66 55 50 49 60 62 54 46 50 43 35 26 32
33 34 33 34 27 25 29 33 35 43 51 55 53 56 61 59 59 58 57 55 54 44 45 48 55 58 50 47 47 39 36 32
Wind_Direction_850mb
192 180 182 185 191 196 201 202 203 203 207 212 214 219 219 222 230 229 227 227 224 215 206 194 178 165 155 151 141 123 125 101
191 181 187 190 194 200 207 208 212 215 217 221 220 221 222 229 233 231 228 225 217 209 202 192 182 169 157 146 142 125 129 126
193 191 193 196 200 206 208 216 220 221 216 224 225 226 222 220 222 222 223 219 213 207 203 197 188 171 154 135 118 138 124 126
195 197 193 202 199 213 205 213 216 226 228 228 236 204 200 197 223 215 219 218 214 202 198 194 184 165 148 127 135 139 137 124
194 199 201 200 207 208 206 207 215 224 227 227 226 212 213 211 219 212 217 215 213 208 197 167 165 176 168 169 151 135 131 138
195 205 206 205 214 214 222 232 222 227 226 230 234 234 231 204 212 216 220 216 212 202 183 187 186 184 177 166 152 156 153 174
209 207 212 210 219 220 228 224 224 234 237 239 240 235 227 222 217 220 214 206 203 198 193 189 180 174 167 163 152 161 155 188
221 222 225 224 229 231 233 235 239 240 239 239 241 232 220 224 225 220 211 204 202 195 194 184 179 173 165 164 159 155 159 196
221 224 227 231 230 234 234 238 242 242 240 241 241 242 234 229 229 222 208 205 198 198 193 185 180 175 168 162 159 158 155 153
223 230 227 228 221 235 236 239 239 240 244 242 239 236 229 232 231 223 204 203 197 194 191 191 186 178 173 168 159 158 156 149
222 246 241 233 226 232 242 245 236 238 239 242 241 232 230 229 221 213 209 205 198 195 191 191 189 182 176 172 166 160 153 158
226 221 242 235 233 225 227 224 227 224 221 221 224 224 225 222 206 207 210 201 200 197 193 192 191 184 178 175 167 161 162 155
229 226 251 239 232 224 233 231 234 233 221 218 218 218 219 219 200 209 217 200 201 196 192 190 189 185 171 168 165 166 166 160
221 253 248 241 242 245 246 241 238 240 230 216 212 212 213 210 202 210 218 204 202 200 189 191 190 184 178 172 167 173 180 165
219 235 242 244 239 247 254 242 233 222 219 215 210 210 215 209 207 202 213 201 207 202 193 191 189 187 183 170 167 197 173 180
338 292 272 254 251 254 258 250 232 220 209 208 215 215 213 213 207 200 199 202 201 199 195 196 191 188 189 200 212 213 174 168
342 331 304 288 273 263 255 251 246 240 230 226 230 226 224 223 219 217 203 198 202 197 196 199 196 197 194 204 189 175 171 165
335 324 308 296 289 283 274 267 260 250 244 239 240 240 240 234 237 225 213 210 213 204 198 199 200 206 207 206 189 187 187 177
322 313 309 288 255 263 266 262 264 263 255 248 241 236 234 235 226 223 216 210 210 212 214 215 203 205 212 210 188 195 195 190
284 278 268 251 252 261 265 262 255 249 249 243 242 246 246 235 228 217 209 205 205 205 208 220 217 208 211 204 202 195 202 189